Plattsburgh, NY

3:32 AM EST on November 24, 2017 (GMT -0500)
Plattsburgh International

Weather History for KPBG - September, 2012

Change the Weather History Date:

Monday, September 3, 2012

  Actual Average Record
Temperature  
Mean Temperature 64 °F 64 °F  
Max Temperature 81 °F 76 °F 90 °F (1953)
Min Temperature 46 °F 52 °F 41 °F (2017)
Degree Days  
Heating Degree Days 1 3  
Month to date heating degree days 5 9  
Since 1 July heating degree days 22 50  
Cooling Degree Days 0 2  
Month to date cooling degree days 0 6  
Year to date cooling degree days 471 328  
Growing Degree Days 14 (Base 50)    
Moisture  
Dew Point 54 °F    
Average Humidity 73    
Maximum Humidity 100    
Minimum Humidity 45    
Precipitation  
Precipitation 0.00 in - 1.27 in (2017)
Month to date precipitation 0.00  
Year to date precipitation 16.25  
Sea Level Pressure  
Sea Level Pressure 30.10 in    
Wind  
Wind Speed 6 mph (SSE)    
Max Wind Speed 20 mph    
Max Gust Speed 24 mph    
Visibility 10 miles    
Events      
T = Trace of Precipitation, MM = Missing Value Source: NWS Daily Summary

Daily Weather History Graph

Daily Weather History Graph

Search for Another Location

Airport or City:

Trip Planner

Search our weather history database for the weather conditions in past years. The results will help you decide how hot, cold, wet, or windy it might be!

Date:

Astronomy

Sep. 03, 2012 Rise Set
Actual Time 6:19 AM EDT 7:26 PM EDT
Civil Twilight 5:49 AM EDT 7:55 PM EDT
Nautical Twilight 5:13 AM EDT 8:31 PM EDT
Astronomical Twilight 4:35 AM EDT 9:09 PM EDT
Moon 8:32 PM EDT (9/3) 9:35 AM EDT (9/3)
Length of Visible Light 14h 06m
Length of Day
13h 06m
Waning Gibbous, 90% of the Moon is Illuminated
Sep 3
Waning Gibbous
Sep 8
Last Quarter
Sep 15
New
Sep 22
First Quarter
Sep 29
Full

Hourly Weather History & Observations

Time (EDT) Temp. Heat Index Dew Point Humidity Pressure Visibility Wind Dir Wind Speed Gust Speed Precip Events Conditions
12:53 AM 54.0 °F - 50.0 °F 86% 30.14 in 10.0 mi Calm Calm - N/A   Clear
1:53 AM 51.1 °F - 48.0 °F 89% 30.13 in 10.0 mi Calm Calm - N/A   Clear
2:53 AM 48.9 °F - 48.0 °F 97% 30.13 in 10.0 mi Calm Calm - N/A   Clear
3:53 AM 48.9 °F - 46.0 °F 90% 30.13 in 10.0 mi Calm Calm - N/A   Clear
4:53 AM 48.0 °F - 46.0 °F 93% 30.14 in 10.0 mi Calm Calm - N/A   Clear
5:53 AM 46.9 °F - 46.0 °F 97% 30.15 in 10.0 mi Calm Calm - N/A   Clear
6:53 AM 48.9 °F - 46.0 °F 90% 30.17 in 10.0 mi Calm Calm - N/A   Clear
7:53 AM 55.9 °F - 50.0 °F 80% 30.17 in 10.0 mi Calm Calm - N/A   Clear
8:53 AM 63.0 °F - 54.0 °F 72% 30.16 in 10.0 mi Calm Calm - N/A   Clear
9:53 AM 66.9 °F - 57.0 °F 70% 30.16 in 10.0 mi SE 6.9 mph - N/A   Clear
10:53 AM 69.1 °F - 57.0 °F 65% 30.14 in 10.0 mi ESE 9.2 mph - N/A   Clear
11:53 AM 73.0 °F - 57.9 °F 59% 30.12 in 10.0 mi ESE 8.1 mph - N/A   Clear
12:53 PM 75.9 °F - 59.0 °F 56% 30.10 in 10.0 mi SE 11.5 mph - N/A   Clear
1:53 PM 78.1 °F - 59.0 °F 52% 30.09 in 10.0 mi SE 15.0 mph - N/A   Clear
2:53 PM 80.1 °F 80.7 °F 59.0 °F 48% 30.07 in 10.0 mi SE 16.1 mph - N/A   Clear
3:53 PM 81.0 °F 81.1 °F 57.9 °F 45% 30.05 in 10.0 mi SE 15.0 mph 21.9 mph N/A   Partly Cloudy
4:53 PM 81.0 °F 81.0 °F 57.0 °F 44% 30.03 in 10.0 mi SSE 16.1 mph 23.0 mph N/A   Clear
5:53 PM 79.0 °F - 57.0 °F 47% 30.02 in 10.0 mi SSE 13.8 mph 19.6 mph N/A   Clear
6:53 PM 78.1 °F - 55.9 °F 46% 30.00 in 10.0 mi South 10.4 mph - N/A   Scattered Clouds
7:53 PM 75.0 °F - 55.9 °F 51% 30.01 in 10.0 mi South 6.9 mph - N/A   Partly Cloudy
8:53 PM 72.0 °F - 55.9 °F 57% 30.02 in 10.0 mi SSE 4.6 mph - N/A   Clear
10:53 PM 66.0 °F - 57.0 °F 73% 30.03 in 10.0 mi South 3.5 mph - N/A   Clear
11:53 PM 62.1 °F - 57.9 °F 86% 30.04 in 10.0 mi Calm Calm - N/A   Scattered Clouds